Regional Weather Roundup
Issued by NWS

Home | Current Version | Previous Version | Text Only | Print | Product List | Glossary Off
Versions: 1 2 3 4 5 6 7 8 9 10 11 12 13 14 15 16 17 18 19 20 21 22 23 24 25 26 27 28 29 30 31 32 33 34 35 36 37 38 39 40 41 42 43 44 45 46 47 48 49 50

345
ASUS45 KCYS 230510
RWRWY

WYOMING REGIONAL WEATHER ROUNDUP
NATIONAL WEATHER SERVICE CHEYENNE WY
1000 PM MST WED FEB 22 2017

NOTE:  "FAIR" INDICATES FEW OR NO CLOUDS BELOW 12,000 FEET
WITH NO SIGNIFICANT WEATHER AND/OR OBSTRUCTIONS TO VISIBILITY.

WYZ001-230600-
YELLOWSTONE NATIONAL PARK

CITY           SKY/WX    TMP DP  RH WIND       PRES   REMARKS
LK YELLOWSTONE   N/A      2  -1  88 CALM      29.74F
W YELLOWSTONE  NOT AVBL

$$
WYZ002>013-054>058-071-098>099-230600-
NORTHERN WYOMING

CITY           SKY/WX    TMP DP  RH WIND       PRES   REMARKS
JACKSON        FAIR      21  18  86 NE9       29.72S WCI  11
CODY           FLURRIES  29  26  89 NE7       29.83F WCI  22
GREYBULL       FAIR      32  28  85 NW18      29.79F WCI  20
WORLAND        FAIR      32  28  85 N9        29.79R WCI  24
SHERIDAN       CLOUDY    32  27  81 E9        29.86F WCI  24
BUFFALO        LGT SNOW  31  27  85 E7        29.84R FOG     WCI  24
GILLETTE       CLOUDY    30  27  88 NE8       29.85R WCI  22
HULETT         CLOUDY    32  28  86 MISG      29.88S
NEWCASTLE      MOCLDY    32  27  80 SE12G18   29.84S WCI  23

$$
WYZ014>020-022>026-101>103-230600-
CENTRAL WYOMING

CITY           SKY/WX    TMP DP  RH WIND       PRES   REMARKS
BIG PINEY      CLOUDY    19  15  84 CALM      29.70F
PINEDALE       CLOUDY    21  14  73 N7        29.71F WCI  13
DUBOIS         FAIR      18  12  79 CALM      29.71R
LANDER         MOCLDY    32  21  64 NW8       29.74R WCI  25
RIVERTON       FAIR      32  21  64 NE15      29.75R WCI  22
CASPER         CLOUDY    31  27  85 NE12      29.77F WCI  22
DOUGLAS        CLOUDY    35  25  66 E12       29.80R WCI  27

$$
WYZ021-027>030-104>119-230600-
SOUTHERN WYOMING

CITY           SKY/WX    TMP DP  RH WIND       PRES   REMARKS
EVANSTON       LGT SNOW  22  18  85 W18       29.69S VSB 1   WCI   7
FORT BRIDGER   LGT SNOW  25  25 100 E5        29.72S WCI  20
ROCK SPRINGS   LGT SNOW  25  22  88 N12       29.67F VSB 3/4 WCI  14
DIXON          FLURRIES  29  27  92 W5        29.65F WCI  24
RAWLINS        LGT SNOW  27  24  89 NE8       29.68F VSB 1   WCI  19
SARATOGA       LGT SNOW  27  27 100 CALM      29.66F
LARAMIE        LGT SNOW  25  23  92 N5        29.72F VSB 1   WCI  19
CHEYENNE       CLOUDY    30  28  92 N7        29.76S WCI  23
TORRINGTON     MIX PCPN  36  32  85 E7        29.80F WCI  30
PINE BLUFFS    CLOUDY    36  27  69 N9G26     29.78S WCI  29

$$




USA.gov is the U.S. government's official web portal to all federal, state and local government web resources and services.